TimeCST,TemperatureF,Dew PointF,Humidity,Sea Level PressureIn,VisibilityMPH,Wind Direction,Wind SpeedMPH,Gust SpeedMPH,PrecipitationIn,Events,Conditions,WindDirDegrees,DateUTC
12:53 AM,39.0,33.1,79,30.38,10.0,NNE,4.6,-,N/A,,Clear,30,2012-11-17 06:53:00
1:53 AM,39.9,34.0,79,30.37,10.0,NNE,5.8,-,N/A,,Clear,20,2012-11-17 07:53:00
2:53 AM,37.0,33.1,86,30.38,10.0,NNW,4.6,-,N/A,,Clear,330,2012-11-17 08:53:00
3:53 AM,37.9,33.1,83,30.37,10.0,Calm,Calm,-,N/A,,Clear,0,2012-11-17 09:53:00
4:53 AM,37.0,34.0,89,30.38,9.0,Calm,Calm,-,N/A,,Clear,0,2012-11-17 10:53:00
5:53 AM,35.6,32.0,87,30.39,8.0,NW,5.8,-,N/A,,Clear,310,2012-11-17 11:53:00
6:53 AM,36.0,33.1,89,30.41,7.0,Calm,Calm,-,N/A,,Clear,0,2012-11-17 12:53:00
7:53 AM,41.0,36.0,82,30.42,7.0,NE,3.5,-,N/A,,Clear,40,2012-11-17 13:53:00
8:53 AM,50.0,37.9,63,30.43,10.0,ENE,4.6,-,N/A,,Clear,60,2012-11-17 14:53:00
9:53 AM,54.0,36.0,51,30.44,10.0,East,3.5,-,N/A,,Clear,80,2012-11-17 15:53:00
10:53 AM,59.0,36.0,42,30.43,10.0,ENE,4.6,-,N/A,,Clear,70,2012-11-17 16:53:00
11:53 AM,63.0,34.0,34,30.40,10.0,ENE,3.5,-,N/A,,Clear,70,2012-11-17 17:53:00
12:53 PM,66.0,28.0,24,30.37,10.0,NE,8.1,-,N/A,,Clear,50,2012-11-17 18:53:00
1:53 PM,66.0,30.0,26,30.35,10.0,ENE,6.9,-,N/A,,Clear,70,2012-11-17 19:53:00
2:53 PM,66.0,28.9,25,30.34,10.0,ENE,8.1,-,N/A,,Clear,70,2012-11-17 20:53:00
3:53 PM,64.0,30.9,29,30.35,10.0,ENE,6.9,-,N/A,,Clear,60,2012-11-17 21:53:00
4:53 PM,59.0,34.0,39,30.33,10.0,ENE,5.8,-,N/A,,Clear,70,2012-11-17 22:53:00
5:53 PM,50.0,37.0,61,30.33,10.0,ENE,3.5,-,N/A,,Clear,70,2012-11-17 23:53:00
6:53 PM,46.9,37.9,71,30.35,10.0,Calm,Calm,-,N/A,,Clear,0,2012-11-18 00:53:00
7:53 PM,44.1,37.9,79,30.36,10.0,NE,3.5,-,N/A,,Clear,50,2012-11-18 01:53:00
8:53 PM,42.1,37.0,82,30.37,10.0,Calm,Calm,-,N/A,,Clear,0,2012-11-18 02:53:00
9:53 PM,39.0,36.0,89,30.38,9.0,Calm,Calm,-,N/A,,Clear,0,2012-11-18 03:53:00
10:53 PM,44.1,36.0,73,30.37,10.0,ENE,5.8,-,N/A,,Clear,70,2012-11-18 04:53:00
11:53 PM,42.1,36.0,79,30.37,10.0,Calm,Calm,-,N/A,,Clear,0,2012-11-18 05:53:00